Wetterdaten: Freitag, 18.09.2015
Datum Zeit Temp. A. Feuchte A. Luftdruck Regen Wind Richtung Richtung Sonnenschein ET UV Solar Taupunkt Windchill Windben Empfang
18.09.2015 00:00 14,6 C 72 % 1015,3 hPa 0,0 l/m 0,0 km/h (0 Bft) O-NO 64 0 min 0,000 mm 0,0 UV-I 0 W/m 9,6 C 14,6 C 0,0 km/h (0 Bft) 0,00 %
18.09.2015 00:05 14,5 C 72 % 1015,6 hPa 0,0 l/m 0,0 km/h (0 Bft) O-NO 70 0 min 0,000 mm 0,0 UV-I 0 W/m 9,5 C 14,5 C 0,0 km/h (0 Bft) 0,00 %
18.09.2015 00:10 14,4 C 72 % 1015,2 hPa 0,0 l/m 0,0 km/h (0 Bft) O-SO 102 0 min 0,000 mm 0,0 UV-I 0 W/m 9,4 C 14,4 C 0,0 km/h (0 Bft) 0,00 %
18.09.2015 00:15 14,4 C 72 % 1015,3 hPa 0,0 l/m 0,0 km/h (0 Bft) O-NO 65 0 min 0,000 mm 0,0 UV-I 0 W/m 9,4 C 14,4 C 0,0 km/h (0 Bft) 0,00 %
18.09.2015 00:20 14,3 C 72 % 1015,3 hPa 0,0 l/m 0,0 km/h (0 Bft) O-NO 65 0 min 0,000 mm 0,0 UV-I 0 W/m 9,3 C 14,3 C 0,0 km/h (0 Bft) 0,00 %
18.09.2015 00:25 14,3 C 71 % 1015,4 hPa 0,0 l/m 0,0 km/h (0 Bft) O 82 0 min 0,000 mm 0,0 UV-I 0 W/m 9,1 C 14,3 C 0,0 km/h (0 Bft) 0,00 %
18.09.2015 00:30 14,3 C 72 % 1015,5 hPa 0,0 l/m 0,0 km/h (0 Bft) NO 45 0 min 0,000 mm 0,0 UV-I 0 W/m 9,3 C 14,3 C 0,0 km/h (0 Bft) 0,00 %
18.09.2015 00:35 14,3 C 72 % 1015,3 hPa 0,0 l/m 0,0 km/h (0 Bft) O-NO 72 0 min 0,000 mm 0,0 UV-I 0 W/m 9,3 C 14,3 C 0,0 km/h (0 Bft) 0,00 %
18.09.2015 00:40 14,3 C 73 % 1015,3 hPa 0,0 l/m 0,0 km/h (0 Bft) O-NO 64 0 min 0,000 mm 0,0 UV-I 0 W/m 9,5 C 14,3 C 0,0 km/h (0 Bft) 0,00 %
18.09.2015 00:45 14,3 C 73 % 1015,4 hPa 0,0 l/m 0,0 km/h (0 Bft) O-NO 70 0 min 0,000 mm 0,0 UV-I 0 W/m 9,5 C 14,3 C 0,0 km/h (0 Bft) 0,00 %
18.09.2015 00:50 14,3 C 72 % 1015,4 hPa 0,0 l/m 0,0 km/h (0 Bft) O-NO 68 0 min 0,000 mm 0,0 UV-I 0 W/m 9,3 C 14,3 C 0,0 km/h (0 Bft) 0,00 %
18.09.2015 00:55 14,3 C 73 % 1015,5 hPa 0,0 l/m 0,0 km/h (0 Bft) O-NO 69 0 min 0,000 mm 0,0 UV-I 0 W/m 9,5 C 14,3 C 0,0 km/h (0 Bft) 0,00 %
18.09.2015 01:00 14,3 C 74 % 1015,5 hPa 0,0 l/m 0,0 km/h (0 Bft) O-NO 69 0 min 0,000 mm 0,0 UV-I 0 W/m 9,7 C 14,3 C 0,0 km/h (0 Bft) 0,00 %
18.09.2015 01:05 14,3 C 74 % 1015,5 hPa 0,0 l/m 0,0 km/h (0 Bft) O-NO 69 0 min 0,000 mm 0,0 UV-I 0 W/m 9,7 C 14,3 C 0,0 km/h (0 Bft) 0,00 %
18.09.2015 01:10 14,3 C 74 % 1015,5 hPa 0,0 l/m 0,0 km/h (0 Bft) O-NO 67 0 min 0,000 mm 0,0 UV-I 0 W/m 9,7 C 14,3 C 0,0 km/h (0 Bft) 0,00 %
18.09.2015 01:15 14,3 C 73 % 1015,5 hPa 0,0 l/m 0,0 km/h (0 Bft) O-NO 65 0 min 0,000 mm 0,0 UV-I 0 W/m 9,5 C 14,3 C 0,0 km/h (0 Bft) 0,00 %
18.09.2015 01:20 14,3 C 74 % 1015,5 hPa 0,0 l/m 0,0 km/h (0 Bft) NO 36 0 min 0,000 mm 0,0 UV-I 0 W/m 9,7 C 14,3 C 0,0 km/h (0 Bft) 0,00 %
18.09.2015 01:25 14,3 C 74 % 1015,6 hPa 0,0 l/m 0,0 km/h (0 Bft) O-NO 67 0 min 0,000 mm 0,0 UV-I 0 W/m 9,7 C 14,3 C 0,0 km/h (0 Bft) 0,00 %
18.09.2015 01:30 14,2 C 74 % 1015,7 hPa 0,0 l/m 0,4 km/h (0 Bft) O-NO 64 0 min 0,000 mm 0,0 UV-I 0 W/m 9,6 C 14,2 C 4,0 km/h (1 Bft) 0,00 %
18.09.2015 01:35 14,2 C 74 % 1015,6 hPa 0,0 l/m 1,4 km/h (1 Bft) NO 49 0 min 0,000 mm 0,0 UV-I 0 W/m 9,6 C 14,2 C 4,0 km/h (1 Bft) 0,00 %
18.09.2015 01:40 14,2 C 74 % 1015,6 hPa 0,0 l/m 0,0 km/h (0 Bft) O-NO 71 0 min 0,000 mm 0,0 UV-I 0 W/m 9,6 C 14,2 C 0,0 km/h (0 Bft) 0,00 %
18.09.2015 01:45 14,2 C 74 % 1015,6 hPa 0,0 l/m 0,0 km/h (0 Bft) NO 52 0 min 0,000 mm 0,0 UV-I 0 W/m 9,6 C 14,2 C 0,0 km/h (0 Bft) 0,00 %
18.09.2015 01:50 14,1 C 75 % 1015,7 hPa 0,0 l/m 0,0 km/h (0 Bft) O-NO 65 0 min 0,000 mm 0,0 UV-I 0 W/m 9,7 C 14,1 C 0,0 km/h (0 Bft) 0,00 %
18.09.2015 01:55 14,1 C 75 % 1016,0 hPa 0,0 l/m 0,0 km/h (0 Bft) O-NO 65 0 min 0,000 mm 0,0 UV-I 0 W/m 9,7 C 14,1 C 0,0 km/h (0 Bft) 0,00 %
18.09.2015 02:00 14,1 C 76 % 1015,8 hPa 0,0 l/m 0,0 km/h (0 Bft) O-NO 65 0 min 0,000 mm 0,0 UV-I 0 W/m 9,9 C 14,1 C 0,0 km/h (0 Bft) 0,00 %
18.09.2015 02:05 14,1 C 75 % 1016,0 hPa 0,0 l/m 0,0 km/h (0 Bft) NO 49 0 min 0,000 mm 0,0 UV-I 0 W/m 9,7 C 14,1 C 0,0 km/h (0 Bft) 0,00 %
18.09.2015 02:10 14,0 C 76 % 1015,8 hPa 0,0 l/m 0,0 km/h (0 Bft) NO 41 0 min 0,000 mm 0,0 UV-I 0 W/m 9,8 C 14,0 C 0,0 km/h (0 Bft) 0,00 %
18.09.2015 02:15 14,0 C 77 % 1015,9 hPa 0,0 l/m 0,0 km/h (0 Bft) NO 41 0 min 0,000 mm 0,0 UV-I 0 W/m 10,0 C 14,0 C 0,0 km/h (0 Bft) 0,00 %
18.09.2015 02:20 14,0 C 76 % 1015,7 hPa 0,0 l/m 0,0 km/h (0 Bft) NO 41 0 min 0,000 mm 0,0 UV-I 0 W/m 9,8 C 14,0 C 0,0 km/h (0 Bft) 0,00 %
18.09.2015 02:25 13,9 C 76 % 1015,8 hPa 0,0 l/m 0,0 km/h (0 Bft) NO 41 0 min 0,000 mm 0,0 UV-I 0 W/m 9,7 C 13,9 C 0,0 km/h (0 Bft) 0,00 %
18.09.2015 02:30 13,9 C 77 % 1015,7 hPa 0,0 l/m 0,0 km/h (0 Bft) NO 41 0 min 0,000 mm 0,0 UV-I 0 W/m 9,9 C 13,9 C 0,0 km/h (0 Bft) 0,00 %
18.09.2015 02:35 13,9 C 77 % 1015,7 hPa 0,0 l/m 0,0 km/h (0 Bft) NO 41 0 min 0,000 mm 0,0 UV-I 0 W/m 9,9 C 13,9 C 0,0 km/h (0 Bft) 0,00 %
18.09.2015 02:40 13,9 C 78 % 1015,7 hPa 0,0 l/m 0,0 km/h (0 Bft) NO 41 0 min 0,000 mm 0,0 UV-I 0 W/m 10,1 C 13,9 C 0,0 km/h (0 Bft) 0,00 %
18.09.2015 02:45 13,8 C 77 % 1015,6 hPa 0,0 l/m 0,0 km/h (0 Bft) NO 41 0 min 0,000 mm 0,0 UV-I 0 W/m 9,8 C 13,8 C 0,0 km/h (0 Bft) 0,00 %
18.09.2015 02:50 13,8 C 78 % 1015,9 hPa 0,0 l/m 0,0 km/h (0 Bft) NO 41 0 min 0,000 mm 0,0 UV-I 0 W/m 10,0 C 13,8 C 0,0 km/h (0 Bft) 0,00 %
18.09.2015 02:55 13,8 C 78 % 1015,9 hPa 0,0 l/m 0,0 km/h (0 Bft) O 89 0 min 0,000 mm 0,0 UV-I 0 W/m 10,0 C 13,8 C 0,0 km/h (0 Bft) 0,00 %
18.09.2015 03:00 13,8 C 79 % 1015,9 hPa 0,0 l/m 0,0 km/h (0 Bft) O-NO 77 0 min 0,000 mm 0,0 UV-I 0 W/m 10,2 C 13,8 C 0,0 km/h (0 Bft) 0,00 %
18.09.2015 03:05 13,8 C 79 % 1016,1 hPa 0,0 l/m 0,0 km/h (0 Bft) O-NO 77 0 min 0,000 mm 0,0 UV-I 0 W/m 10,2 C 13,8 C 0,0 km/h (0 Bft) 0,00 %
18.09.2015 03:10 13,8 C 80 % 1016,1 hPa 0,0 l/m 0,0 km/h (0 Bft) O-NO 77 0 min 0,000 mm 0,0 UV-I 0 W/m 10,4 C 13,8 C 0,0 km/h (0 Bft) 0,00 %
18.09.2015 03:15 13,7 C 81 % 1016,2 hPa 0,0 l/m 0,0 km/h (0 Bft) O-NO 77 0 min 0,000 mm 0,0 UV-I 0 W/m 10,5 C 13,7 C 0,0 km/h (0 Bft) 0,00 %
18.09.2015 03:20 13,7 C 81 % 1016,1 hPa 0,0 l/m 0,0 km/h (0 Bft) O-NO 77 0 min 0,000 mm 0,0 UV-I 0 W/m 10,5 C 13,7 C 0,0 km/h (0 Bft) 0,00 %
18.09.2015 03:25 13,7 C 81 % 1016,2 hPa 0,0 l/m 0,0 km/h (0 Bft) O-NO 77 0 min 0,000 mm 0,0 UV-I 0 W/m 10,5 C 13,7 C 0,0 km/h (0 Bft) 0,00 %
18.09.2015 03:30 13,7 C 81 % 1016,1 hPa 0,0 l/m 0,0 km/h (0 Bft) O-NO 77 0 min 0,000 mm 0,0 UV-I 0 W/m 10,5 C 13,7 C 0,0 km/h (0 Bft) 0,00 %
18.09.2015 03:35 13,7 C 81 % 1016,1 hPa 0,0 l/m 0,0 km/h (0 Bft) O-NO 77 0 min 0,000 mm 0,0 UV-I 0 W/m 10,5 C 13,7 C 0,0 km/h (0 Bft) 0,00 %
18.09.2015 03:40 13,6 C 81 % 1016,1 hPa 0,0 l/m 0,0 km/h (0 Bft) O-NO 77 0 min 0,000 mm 0,0 UV-I 0 W/m 10,4 C 13,6 C 0,0 km/h (0 Bft) 0,00 %
18.09.2015 03:46 13,6 C 80 % 1016,1 hPa 0,0 l/m 0,0 km/h (0 Bft) O-NO 77 0 min 0,000 mm 0,0 UV-I 0 W/m 10,2 C 13,6 C 0,0 km/h (0 Bft) 0,00 %
18.09.2015 03:51 13,6 C 80 % 1016,1 hPa 0,0 l/m 0,0 km/h (0 Bft) O 87 0 min 0,000 mm 0,0 UV-I 0 W/m 10,2 C 13,6 C 0,0 km/h (0 Bft) 0,00 %
18.09.2015 03:56 13,6 C 81 % 1016,2 hPa 0,0 l/m 0,0 km/h (0 Bft) O 87 0 min 0,000 mm 0,0 UV-I 0 W/m 10,4 C 13,6 C 0,0 km/h (0 Bft) 0,00 %
18.09.2015 04:01 13,6 C 80 % 1016,2 hPa 0,0 l/m 0,0 km/h (0 Bft) O 87 0 min 0,000 mm 0,0 UV-I 0 W/m 10,2 C 13,6 C 0,0 km/h (0 Bft) 0,00 %
18.09.2015 04:06 13,6 C 80 % 1016,2 hPa 0,0 l/m 0,0 km/h (0 Bft) O 85 0 min 0,000 mm 0,0 UV-I 0 W/m 10,2 C 13,6 C 0,0 km/h (0 Bft) 0,00 %
18.09.2015 04:11 13,6 C 79 % 1016,3 hPa 0,0 l/m 0,0 km/h (0 Bft) O 80 0 min 0,000 mm 0,0 UV-I 0 W/m 10,0 C 13,6 C 0,0 km/h (0 Bft) 0,00 %
18.09.2015 04:16 13,6 C 79 % 1016,1 hPa 0,0 l/m 0,0 km/h (0 Bft) O 80 0 min 0,000 mm 0,0 UV-I 0 W/m 10,0 C 13,6 C 0,0 km/h (0 Bft) 0,00 %
18.09.2015 04:21 13,6 C 81 % 1016,2 hPa 0,0 l/m 0,0 km/h (0 Bft) O 80 0 min 0,000 mm 0,0 UV-I 0 W/m 10,4 C 13,6 C 0,0 km/h (0 Bft) 0,00 %
18.09.2015 04:26 13,6 C 82 % 1016,0 hPa 0,0 l/m 0,0 km/h (0 Bft) O 80 0 min 0,000 mm 0,0 UV-I 0 W/m 10,6 C 13,6 C 0,0 km/h (0 Bft) 0,00 %
18.09.2015 04:31 13,6 C 82 % 1016,3 hPa 0,0 l/m 0,0 km/h (0 Bft) O 81 0 min 0,000 mm 0,0 UV-I 0 W/m 10,6 C 13,6 C 0,0 km/h (0 Bft) 0,00 %
18.09.2015 04:36 13,6 C 82 % 1016,1 hPa 0,0 l/m 0,0 km/h (0 Bft) O-NO 74 0 min 0,000 mm 0,0 UV-I 0 W/m 10,6 C 13,6 C 0,0 km/h (0 Bft) 0,00 %
18.09.2015 04:41 13,6 C 82 % 1016,1 hPa 0,0 l/m 0,0 km/h (0 Bft) O-NO 74 0 min 0,000 mm 0,0 UV-I 0 W/m 10,6 C 13,6 C 0,0 km/h (0 Bft) 0,00 %
18.09.2015 04:46 13,6 C 82 % 1016,0 hPa 0,0 l/m 0,0 km/h (0 Bft) O 79 0 min 0,000 mm 0,0 UV-I 0 W/m 10,6 C 13,6 C 0,0 km/h (0 Bft) 0,00 %
18.09.2015 04:51 13,5 C 82 % 1016,0 hPa 0,0 l/m 0,0 km/h (0 Bft) O 96 0 min 0,000 mm 0,0 UV-I 0 W/m 10,5 C 13,5 C 0,0 km/h (0 Bft) 0,00 %
18.09.2015 04:56 13,5 C 82 % 1016,1 hPa 0,0 l/m 0,0 km/h (0 Bft) O 94 0 min 0,000 mm 0,0 UV-I 0 W/m 10,5 C 13,5 C 0,0 km/h (0 Bft) 0,00 %
18.09.2015 05:01 13,5 C 82 % 1016,0 hPa 0,0 l/m 0,0 km/h (0 Bft) O 91 0 min 0,000 mm 0,0 UV-I 0 W/m 10,5 C 13,5 C 0,0 km/h (0 Bft) 0,00 %
18.09.2015 05:06 13,4 C 82 % 1016,1 hPa 0,0 l/m 0,0 km/h (0 Bft) O 84 0 min 0,000 mm 0,0 UV-I 0 W/m 10,4 C 13,4 C 0,0 km/h (0 Bft) 0,00 %
18.09.2015 05:11 13,4 C 82 % 1016,0 hPa 0,0 l/m 0,0 km/h (0 Bft) O 86 0 min 0,000 mm 0,0 UV-I 0 W/m 10,4 C 13,4 C 0,0 km/h (0 Bft) 0,00 %
18.09.2015 05:16 13,4 C 82 % 1016,0 hPa 0,0 l/m 0,0 km/h (0 Bft) O 92 0 min 0,000 mm 0,0 UV-I 0 W/m 10,4 C 13,4 C 0,0 km/h (0 Bft) 0,00 %
18.09.2015 05:21 13,4 C 82 % 1016,1 hPa 0,0 l/m 0,0 km/h (0 Bft) O 92 0 min 0,000 mm 0,0 UV-I 0 W/m 10,4 C 13,4 C 0,0 km/h (0 Bft) 0,00 %
18.09.2015 05:26 13,4 C 83 % 1016,0 hPa 0,0 l/m 0,0 km/h (0 Bft) O 89 0 min 0,000 mm 0,0 UV-I 0 W/m 10,6 C 13,4 C 0,0 km/h (0 Bft) 0,00 %
18.09.2015 05:31 13,3 C 83 % 1016,1 hPa 0,0 l/m 0,0 km/h (0 Bft) O 89 0 min 0,000 mm 0,0 UV-I 0 W/m 10,5 C 13,3 C 0,0 km/h (0 Bft) 0,00 %
18.09.2015 05:36 13,3 C 83 % 1015,9 hPa 0,0 l/m 0,0 km/h (0 Bft) O 89 0 min 0,000 mm 0,0 UV-I 0 W/m 10,5 C 13,3 C 0,0 km/h (0 Bft) 0,00 %
18.09.2015 05:41 13,3 C 83 % 1015,8 hPa 0,0 l/m 0,0 km/h (0 Bft) O 89 0 min 0,000 mm 0,0 UV-I 0 W/m 10,5 C 13,3 C 0,0 km/h (0 Bft) 0,00 %
18.09.2015 05:46 13,3 C 83 % 1016,0 hPa 0,0 l/m 0,0 km/h (0 Bft) O 89 0 min 0,000 mm 0,0 UV-I 0 W/m 10,5 C 13,3 C 0,0 km/h (0 Bft) 0,00 %
18.09.2015 05:51 13,3 C 83 % 1016,0 hPa 0,0 l/m 0,0 km/h (0 Bft) O 89 0 min 0,000 mm 0,0 UV-I 0 W/m 10,5 C 13,3 C 0,0 km/h (0 Bft) 0,00 %
18.09.2015 05:56 13,3 C 84 % 1015,9 hPa 0,0 l/m 0,0 km/h (0 Bft) O 89 0 min 0,000 mm 0,0 UV-I 0 W/m 10,7 C 13,3 C 0,0 km/h (0 Bft) 0,00 %
18.09.2015 06:01 13,3 C 84 % 1015,9 hPa 0,0 l/m 0,0 km/h (0 Bft) O 89 0 min 0,000 mm 0,0 UV-I 0 W/m 10,7 C 13,3 C 0,0 km/h (0 Bft) 0,00 %
18.09.2015 06:06 13,3 C 84 % 1015,9 hPa 0,0 l/m 0,0 km/h (0 Bft) O 89 0 min 0,000 mm 0,0 UV-I 0 W/m 10,7 C 13,3 C 0,0 km/h (0 Bft) 0,00 %
18.09.2015 06:11 13,3 C 84 % 1015,8 hPa 0,0 l/m 0,0 km/h (0 Bft) O 89 0 min 0,000 mm 0,0 UV-I 0 W/m 10,7 C 13,3 C 0,0 km/h (0 Bft) 0,00 %
18.09.2015 06:16 13,3 C 84 % 1015,9 hPa 0,0 l/m 0,0 km/h (0 Bft) O 88 0 min 0,000 mm 0,0 UV-I 0 W/m 10,7 C 13,3 C 0,0 km/h (0 Bft) 0,00 %
18.09.2015 06:21 13,3 C 83 % 1015,9 hPa 0,0 l/m 0,0 km/h (0 Bft) O 89 0 min 0,000 mm 0,0 UV-I 0 W/m 10,5 C 13,3 C 0,0 km/h (0 Bft) 0,00 %
18.09.2015 06:26 13,3 C 83 % 1015,9 hPa 0,0 l/m 0,0 km/h (0 Bft) O 97 0 min 0,000 mm 0,0 UV-I 0 W/m 10,5 C 13,3 C 0,0 km/h (0 Bft) 0,00 %
18.09.2015 06:31 13,3 C 83 % 1015,9 hPa 0,0 l/m 0,0 km/h (0 Bft) O 99 0 min 0,000 mm 0,0 UV-I 0 W/m 10,5 C 13,3 C 0,0 km/h (0 Bft) 0,00 %
18.09.2015 06:36 13,3 C 83 % 1016,0 hPa 0,0 l/m 0,0 km/h (0 Bft) O 99 0 min 0,000 mm 0,0 UV-I 0 W/m 10,5 C 13,3 C 0,0 km/h (0 Bft) 0,00 %
18.09.2015 06:41 13,3 C 83 % 1015,9 hPa 0,0 l/m 0,0 km/h (0 Bft) O 99 0 min 0,000 mm 0,0 UV-I 0 W/m 10,5 C 13,3 C 0,0 km/h (0 Bft) 0,00 %
18.09.2015 06:46 13,3 C 83 % 1016,0 hPa 0,0 l/m 0,0 km/h (0 Bft) O 99 0 min 0,000 mm 0,0 UV-I 0 W/m 10,5 C 13,3 C 0,0 km/h (0 Bft) 0,00 %
18.09.2015 06:51 13,3 C 84 % 1016,2 hPa 0,0 l/m 0,0 km/h (0 Bft) O 94 0 min 0,000 mm 0,0 UV-I 0 W/m 10,7 C 13,3 C 0,0 km/h (0 Bft) 0,00 %
18.09.2015 06:56 13,3 C 84 % 1016,2 hPa 0,0 l/m 0,0 km/h (0 Bft) O 85 0 min 0,000 mm 0,0 UV-I 2 W/m 10,7 C 13,3 C 0,0 km/h (0 Bft) 0,00 %
18.09.2015 07:01 13,3 C 84 % 1016,3 hPa 0,0 l/m 0,0 km/h (0 Bft) O 85 0 min 0,000 mm 0,0 UV-I 9 W/m 10,7 C 13,3 C 0,0 km/h (0 Bft) 0,00 %
18.09.2015 07:06 13,3 C 84 % 1016,2 hPa 0,0 l/m 0,0 km/h (0 Bft) O 85 0 min 0,000 mm 0,0 UV-I 19 W/m 10,7 C 13,3 C 0,0 km/h (0 Bft) 0,00 %
18.09.2015 07:11 13,3 C 84 % 1016,3 hPa 0,0 l/m 0,0 km/h (0 Bft) O 90 0 min 0,000 mm 0,0 UV-I 26 W/m 10,7 C 13,3 C 0,0 km/h (0 Bft) 0,00 %
18.09.2015 07:16 13,5 C 83 % 1016,6 hPa 0,0 l/m 0,0 km/h (0 Bft) O 95 0 min 0,000 mm 0,0 UV-I 29 W/m 10,7 C 13,5 C 0,0 km/h (0 Bft) 0,00 %
18.09.2015 07:21 13,7 C 82 % 1016,6 hPa 0,0 l/m 0,0 km/h (0 Bft) O 94 0 min 0,000 mm 0,0 UV-I 38 W/m 10,7 C 13,7 C 0,0 km/h (0 Bft) 0,00 %
18.09.2015 07:26 13,9 C 81 % 1016,5 hPa 0,0 l/m 0,0 km/h (0 Bft) O 94 0 min 0,000 mm 0,0 UV-I 46 W/m 10,7 C 13,9 C 0,0 km/h (0 Bft) 0,00 %
18.09.2015 07:31 14,1 C 80 % 1016,6 hPa 0,0 l/m 0,0 km/h (0 Bft) O 94 0 min 0,000 mm 0,0 UV-I 56 W/m 10,7 C 14,1 C 0,0 km/h (0 Bft) 0,00 %
18.09.2015 07:36 14,2 C 80 % 1016,8 hPa 0,0 l/m 0,0 km/h (0 Bft) O 87 0 min 0,000 mm 0,0 UV-I 58 W/m 10,8 C 14,2 C 0,0 km/h (0 Bft) 0,00 %
18.09.2015 07:41 14,3 C 80 % 1016,9 hPa 0,0 l/m 0,0 km/h (0 Bft) O 79 0 min 0,000 mm 0,0 UV-I 73 W/m 10,9 C 14,3 C 0,0 km/h (0 Bft) 0,00 %
18.09.2015 07:46 14,4 C 80 % 1016,8 hPa 0,0 l/m 0,0 km/h (0 Bft) O 89 0 min 0,000 mm 0,0 UV-I 82 W/m 11,0 C 14,4 C 0,0 km/h (0 Bft) 0,00 %
18.09.2015 07:51 14,5 C 80 % 1016,7 hPa 0,0 l/m 0,0 km/h (0 Bft) O 88 0 min 0,000 mm 0,0 UV-I 84 W/m 11,1 C 14,5 C 0,0 km/h (0 Bft) 0,00 %
18.09.2015 07:56 14,6 C 78 % 1016,9 hPa 0,0 l/m 0,0 km/h (0 Bft) O 87 0 min 0,000 mm 0,0 UV-I 80 W/m 10,8 C 14,6 C 0,0 km/h (0 Bft) 0,00 %
18.09.2015 08:01 14,7 C 74 % 1016,8 hPa 0,0 l/m 0,0 km/h (0 Bft) O 86 0 min 0,000 mm 0,0 UV-I 76 W/m 10,1 C 14,7 C 0,0 km/h (0 Bft) 0,00 %
18.09.2015 08:06 14,7 C 75 % 1016,9 hPa 0,0 l/m 0,0 km/h (0 Bft) O 85 0 min 0,000 mm 0,0 UV-I 83 W/m 10,3 C 14,7 C 0,0 km/h (0 Bft) 0,00 %
18.09.2015 08:11 14,8 C 77 % 1017,0 hPa 0,0 l/m 0,0 km/h (0 Bft) O 85 0 min 0,000 mm 0,0 UV-I 97 W/m 10,8 C 14,8 C 0,0 km/h (0 Bft) 0,00 %
18.09.2015 08:16 14,8 C 74 % 1017,0 hPa 0,0 l/m 0,0 km/h (0 Bft) O 85 0 min 0,000 mm 0,0 UV-I 93 W/m 10,2 C 14,8 C 0,0 km/h (0 Bft) 0,00 %
18.09.2015 08:21 14,9 C 72 % 1017,0 hPa 0,0 l/m 0,0 km/h (0 Bft) N-NO 18 0 min 0,000 mm 0,0 UV-I 98 W/m 9,9 C 14,9 C 0,0 km/h (0 Bft) 0,00 %
18.09.2015 08:26 15,0 C 71 % 1017,0 hPa 0,0 l/m 0,0 km/h (0 Bft) NO 41 0 min 0,000 mm 1,0 UV-I 108 W/m 9,8 C 15,0 C 0,0 km/h (0 Bft) 0,00 %
18.09.2015 08:31 15,0 C 71 % 1017,1 hPa 0,0 l/m 0,0 km/h (0 Bft) N-NO 23 0 min 0,000 mm 1,0 UV-I 134 W/m 9,8 C 15,0 C 0,0 km/h (0 Bft) 0,00 %
18.09.2015 08:36 15,0 C 73 % 1017,3 hPa 0,0 l/m 0,0 km/h (0 Bft) N-NO 31 0 min 0,000 mm 1,0 UV-I 128 W/m 10,2 C 15,0 C 0,0 km/h (0 Bft) 0,00 %
18.09.2015 08:41 15,1 C 72 % 1017,2 hPa 0,0 l/m 0,0 km/h (0 Bft) NO 53 0 min 0,000 mm 1,0 UV-I 115 W/m 10,1 C 15,1 C 0,0 km/h (0 Bft) 0,00 %
18.09.2015 08:46 15,1 C 71 % 1017,6 hPa 0,0 l/m 0,0 km/h (0 Bft) NO 41 0 min 0,000 mm 1,0 UV-I 144 W/m 9,9 C 15,1 C 0,0 km/h (0 Bft) 0,00 %
18.09.2015 08:51 15,1 C 69 % 1017,4 hPa 0,0 l/m 0,0 km/h (0 Bft) N 355 0 min 0,000 mm 1,0 UV-I 180 W/m 9,5 C 15,1 C 0,0 km/h (0 Bft) 0,00 %
18.09.2015 08:56 15,1 C 70 % 1017,4 hPa 0,0 l/m 0,4 km/h (0 Bft) NO 34 0 min 0,000 mm 1,0 UV-I 158 W/m 9,7 C 15,1 C 4,0 km/h (1 Bft) 0,00 %
18.09.2015 09:01 15,1 C 69 % 1017,7 hPa 0,0 l/m 0,0 km/h (0 Bft) O-NO 60 5 min 0,000 mm 1,0 UV-I 233 W/m 9,5 C 15,1 C 0,0 km/h (0 Bft) 0,00 %
18.09.2015 09:06 15,3 C 67 % 1017,7 hPa 0,0 l/m 0,4 km/h (0 Bft) NO 43 5 min 0,000 mm 1,0 UV-I 228 W/m 9,2 C 15,3 C 4,0 km/h (1 Bft) 0,00 %
18.09.2015 09:11 15,5 C 66 % 1017,5 hPa 0,0 l/m 0,7 km/h (0 Bft) N 352 5 min 0,000 mm 1,0 UV-I 268 W/m 9,2 C 15,5 C 4,0 km/h (1 Bft) 0,00 %
18.09.2015 09:16 15,7 C 63 % 1017,6 hPa 0,0 l/m 0,0 km/h (0 Bft) O-NO 63 0 min 0,000 mm 1,0 UV-I 170 W/m 8,7 C 15,7 C 0,0 km/h (0 Bft) 0,00 %
18.09.2015 09:21 15,9 C 64 % 1017,5 hPa 0,0 l/m 0,0 km/h (0 Bft) NO 45 0 min 0,000 mm 1,0 UV-I 179 W/m 9,1 C 15,9 C 0,0 km/h (0 Bft) 0,00 %
18.09.2015 09:26 16,0 C 64 % 1017,4 hPa 0,0 l/m 0,0 km/h (0 Bft) O 90 0 min 0,000 mm 1,0 UV-I 182 W/m 9,2 C 16,0 C 0,0 km/h (0 Bft) 0,00 %
18.09.2015 09:31 15,9 C 65 % 1017,5 hPa 0,0 l/m 0,0 km/h (0 Bft) NO 40 0 min 0,000 mm 1,0 UV-I 165 W/m 9,3 C 15,9 C 0,0 km/h (0 Bft) 0,00 %
18.09.2015 09:36 15,8 C 64 % 1017,6 hPa 0,0 l/m 0,4 km/h (0 Bft) NO 37 0 min 0,000 mm 1,0 UV-I 135 W/m 9,0 C 15,8 C 4,0 km/h (1 Bft) 0,00 %
18.09.2015 09:41 15,7 C 65 % 1017,8 hPa 0,0 l/m 0,4 km/h (0 Bft) NO 55 0 min 0,000 mm 1,0 UV-I 117 W/m 9,1 C 15,7 C 4,0 km/h (1 Bft) 0,00 %
18.09.2015 09:46 15,5 C 66 % 1017,7 hPa 0,0 l/m 0,0 km/h (0 Bft) NO 52 0 min 0,000 mm 1,0 UV-I 123 W/m 9,2 C 15,5 C 0,0 km/h (0 Bft) 0,00 %
18.09.2015 09:51 15,5 C 66 % 1017,9 hPa 0,0 l/m 0,0 km/h (0 Bft) O-NO 64 0 min 0,000 mm 1,0 UV-I 140 W/m 9,2 C 15,5 C 0,0 km/h (0 Bft) 0,00 %
18.09.2015 09:56 15,5 C 66 % 1017,8 hPa 0,0 l/m 0,0 km/h (0 Bft) N 356 0 min 0,000 mm 1,0 UV-I 137 W/m 9,2 C 15,5 C 0,0 km/h (0 Bft) 0,00 %
18.09.2015 10:01 15,5 C 67 % 1017,6 hPa 0,0 l/m 0,4 km/h (0 Bft) N 354 0 min 0,000 mm 1,0 UV-I 166 W/m 9,4 C 15,5 C 4,0 km/h (1 Bft) 0,00 %
18.09.2015 10:06 15,5 C 66 % 1018,1 hPa 0,0 l/m 1,8 km/h (1 Bft) N 352 0 min 0,000 mm 1,0 UV-I 136 W/m 9,2 C 15,5 C 4,0 km/h (1 Bft) 0,00 %
18.09.2015 10:11 15,4 C 66 % 1017,8 hPa 0,0 l/m 1,4 km/h (1 Bft) O-NO 71 0 min 0,000 mm 1,0 UV-I 152 W/m 9,1 C 15,4 C 4,0 km/h (1 Bft) 0,00 %
18.09.2015 10:16 15,4 C 66 % 1017,7 hPa 0,0 l/m 1,4 km/h (1 Bft) O-NO 57 0 min 0,000 mm 1,0 UV-I 162 W/m 9,1 C 15,4 C 4,0 km/h (1 Bft) 0,00 %
18.09.2015 10:21 15,4 C 66 % 1018,0 hPa 0,0 l/m 0,0 km/h (0 Bft) O-NO 61 0 min 0,000 mm 1,0 UV-I 123 W/m 9,1 C 15,4 C 0,0 km/h (0 Bft) 0,00 %
18.09.2015 10:26 15,4 C 66 % 1018,1 hPa 0,0 l/m 0,0 km/h (0 Bft) NO 56 0 min 0,000 mm 1,0 UV-I 115 W/m 9,1 C 15,4 C 0,0 km/h (0 Bft) 0,00 %
18.09.2015 10:31 15,4 C 66 % 1018,0 hPa 0,0 l/m 0,0 km/h (0 Bft) NO 55 0 min 0,000 mm 1,0 UV-I 111 W/m 9,1 C 15,4 C 0,0 km/h (0 Bft) 0,00 %
18.09.2015 10:36 15,4 C 67 % 1017,8 hPa 0,0 l/m 1,8 km/h (1 Bft) NO 54 0 min 0,000 mm 1,0 UV-I 179 W/m 9,3 C 15,4 C 4,0 km/h (1 Bft) 0,00 %
18.09.2015 10:41 15,4 C 67 % 1018,0 hPa 0,0 l/m 0,0 km/h (0 Bft) N-NO 25 0 min 0,000 mm 1,0 UV-I 155 W/m 9,3 C 15,4 C 0,0 km/h (0 Bft) 0,00 %
18.09.2015 10:46 15,6 C 67 % 1017,9 hPa 0,0 l/m 1,4 km/h (1 Bft) O-NO 67 0 min 0,000 mm 1,0 UV-I 135 W/m 9,5 C 15,6 C 4,0 km/h (1 Bft) 0,00 %
18.09.2015 10:51 15,5 C 66 % 1018,0 hPa 0,0 l/m 0,0 km/h (0 Bft) O-NO 58 0 min 0,000 mm 1,0 UV-I 159 W/m 9,2 C 15,5 C 0,0 km/h (0 Bft) 0,00 %
18.09.2015 10:56 15,4 C 69 % 1017,9 hPa 0,0 l/m 1,4 km/h (1 Bft) O 86 0 min 0,000 mm 1,0 UV-I 170 W/m 9,7 C 15,4 C 4,0 km/h (1 Bft) 0,00 %
18.09.2015 11:01 15,3 C 70 % 1018,0 hPa 0,0 l/m 0,0 km/h (0 Bft) O-NO 78 0 min 0,000 mm 0,0 UV-I 97 W/m 9,9 C 15,3 C 0,0 km/h (0 Bft) 0,00 %
18.09.2015 11:06 15,2 C 71 % 1017,7 hPa 0,0 l/m 0,0 km/h (0 Bft) O-NO 67 0 min 0,000 mm 1,0 UV-I 109 W/m 10,0 C 15,2 C 0,0 km/h (0 Bft) 0,00 %
18.09.2015 11:11 15,0 C 73 % 1017,8 hPa 0,0 l/m 0,0 km/h (0 Bft) O-NO 61 0 min 0,000 mm 1,0 UV-I 102 W/m 10,2 C 15,0 C 0,0 km/h (0 Bft) 0,00 %
18.09.2015 11:16 15,0 C 74 % 1018,2 hPa 0,0 l/m 0,0 km/h (0 Bft) O-NO 75 0 min 0,000 mm 1,0 UV-I 103 W/m 10,4 C 15,0 C 0,0 km/h (0 Bft) 0,00 %
18.09.2015 11:21 14,9 C 74 % 1018,3 hPa 0,0 l/m 0,0 km/h (0 Bft) O-NO 74 0 min 0,000 mm 1,0 UV-I 85 W/m 10,3 C 14,9 C 0,0 km/h (0 Bft) 0,00 %
18.09.2015 11:26 14,8 C 75 % 1018,5 hPa 0,0 l/m 0,0 km/h (0 Bft) NO 37 0 min 0,000 mm 0,0 UV-I 84 W/m 10,4 C 14,8 C 0,0 km/h (0 Bft) 0,00 %
18.09.2015 11:31 14,6 C 78 % 1018,2 hPa 0,3 l/m 0,0 km/h (0 Bft) O 87 0 min 0,000 mm 1,0 UV-I 125 W/m 10,8 C 14,6 C 0,0 km/h (0 Bft) 0,00 %
18.09.2015 11:36 14,3 C 80 % 1018,1 hPa 0,0 l/m 0,0 km/h (0 Bft) O-NO 75 0 min 0,000 mm 1,0 UV-I 130 W/m 10,9 C 14,3 C 0,0 km/h (0 Bft) 0,00 %
18.09.2015 11:41 14,2 C 81 % 1018,2 hPa 0,0 l/m 0,0 km/h (0 Bft) O 91 0 min 0,000 mm 0,0 UV-I 115 W/m 11,0 C 14,2 C 0,0 km/h (0 Bft) 0,00 %
18.09.2015 11:46 14,1 C 80 % 1018,2 hPa 0,0 l/m 0,0 km/h (0 Bft) O-NO 78 0 min 0,000 mm 1,0 UV-I 111 W/m 10,7 C 14,1 C 0,0 km/h (0 Bft) 0,00 %
18.09.2015 11:51 14,2 C 81 % 1018,3 hPa 0,0 l/m 0,0 km/h (0 Bft) O-NO 74 0 min 0,000 mm 0,0 UV-I 112 W/m 11,0 C 14,2 C 0,0 km/h (0 Bft) 0,00 %
18.09.2015 11:56 14,2 C 81 % 1018,1 hPa 0,0 l/m 0,0 km/h (0 Bft) O-NO 60 0 min 0,000 mm 1,0 UV-I 123 W/m 11,0 C 14,2 C 0,0 km/h (0 Bft) 0,00 %
18.09.2015 12:01 14,3 C 82 % 1018,2 hPa 0,0 l/m 0,0 km/h (0 Bft) O-SO 104 0 min 0,000 mm 1,0 UV-I 130 W/m 11,3 C 14,3 C 0,0 km/h (0 Bft) 0,00 %
18.09.2015 12:06 14,3 C 81 % 1018,1 hPa 0,0 l/m 0,0 km/h (0 Bft) O 82 0 min 0,000 mm 1,0 UV-I 162 W/m 11,1 C 14,3 C 0,0 km/h (0 Bft) 0,00 %
18.09.2015 12:11 14,4 C 80 % 1018,2 hPa 0,0 l/m 0,0 km/h (0 Bft) NO 55 0 min 0,000 mm 1,0 UV-I 137 W/m 11,0 C 14,4 C 0,0 km/h (0 Bft) 0,00 %
18.09.2015 12:16 14,5 C 80 % 1018,1 hPa 0,0 l/m 0,0 km/h (0 Bft) N 6 0 min 0,000 mm 1,0 UV-I 126 W/m 11,1 C 14,5 C 0,0 km/h (0 Bft) 0,00 %
18.09.2015 12:21 14,6 C 81 % 1018,3 hPa 0,0 l/m 0,0 km/h (0 Bft) O-NO 61 0 min 0,000 mm 1,0 UV-I 111 W/m 11,4 C 14,6 C 0,0 km/h (0 Bft) 0,00 %
18.09.2015 12:26 14,7 C 81 % 1018,3 hPa 0,0 l/m 0,0 km/h (0 Bft) O-NO 59 0 min 0,000 mm 0,0 UV-I 102 W/m 11,5 C 14,7 C 0,0 km/h (0 Bft) 0,00 %
18.09.2015 12:31 14,8 C 81 % 1018,3 hPa 0,0 l/m 0,0 km/h (0 Bft) O-NO 61 0 min 0,000 mm 1,0 UV-I 130 W/m 11,6 C 14,8 C 0,0 km/h (0 Bft) 0,00 %
18.09.2015 12:36 14,7 C 81 % 1018,4 hPa 0,0 l/m 0,0 km/h (0 Bft) O-NO 61 0 min 0,000 mm 1,0 UV-I 146 W/m 11,5 C 14,7 C 0,0 km/h (0 Bft) 0,00 %
18.09.2015 12:41 14,7 C 80 % 1018,5 hPa 0,0 l/m 0,0 km/h (0 Bft) O-NO 59 0 min 0,000 mm 1,0 UV-I 144 W/m 11,3 C 14,7 C 0,0 km/h (0 Bft) 0,00 %
18.09.2015 12:46 14,8 C 80 % 1018,5 hPa 0,0 l/m 0,0 km/h (0 Bft) O-NO 58 0 min 0,000 mm 1,0 UV-I 174 W/m 11,4 C 14,8 C 0,0 km/h (0 Bft) 0,00 %
18.09.2015 12:51 14,9 C 79 % 1018,4 hPa 0,0 l/m 0,0 km/h (0 Bft) NO 36 0 min 0,000 mm 1,0 UV-I 248 W/m 11,3 C 14,9 C 0,0 km/h (0 Bft) 0,00 %
18.09.2015 12:56 14,9 C 78 % 1018,1 hPa 0,0 l/m 0,0 km/h (0 Bft) N 356 5 min 0,000 mm 2,0 UV-I 514 W/m 11,1 C 14,9 C 0,0 km/h (0 Bft) 0,00 %
18.09.2015 13:01 15,2 C 77 % 1018,3 hPa 0,0 l/m 0,0 km/h (0 Bft) O-NO 57 5 min 0,000 mm 2,0 UV-I 509 W/m 11,2 C 15,2 C 0,0 km/h (0 Bft) 0,00 %
18.09.2015 13:06 15,5 C 74 % 1018,3 hPa 0,0 l/m 0,0 km/h (0 Bft) O-NO 62 0 min 0,000 mm 1,0 UV-I 260 W/m 10,9 C 15,5 C 0,0 km/h (0 Bft) 0,00 %
18.09.2015 13:11 15,8 C 74 % 1018,2 hPa 0,0 l/m 2,9 km/h (1 Bft) O-NO 62 0 min 0,000 mm 1,0 UV-I 321 W/m 11,2 C 15,8 C 4,0 km/h (1 Bft) 0,00 %
18.09.2015 13:16 15,8 C 73 % 1018,2 hPa 0,0 l/m 0,0 km/h (0 Bft) NO 46 0 min 0,000 mm 1,0 UV-I 268 W/m 11,0 C 15,8 C 0,0 km/h (0 Bft) 0,00 %
18.09.2015 13:21 15,9 C 72 % 1018,4 hPa 0,0 l/m 2,2 km/h (1 Bft) O-NO 62 0 min 0,000 mm 1,0 UV-I 175 W/m 10,9 C 15,9 C 4,0 km/h (1 Bft) 0,00 %
18.09.2015 13:26 15,8 C 74 % 1018,7 hPa 0,0 l/m 0,4 km/h (0 Bft) O 92 0 min 0,000 mm 0,0 UV-I 104 W/m 11,2 C 15,8 C 4,0 km/h (1 Bft) 0,00 %
18.09.2015 13:31 15,6 C 76 % 1018,7 hPa 0,0 l/m 0,0 km/h (0 Bft) NO 55 0 min 0,000 mm 1,0 UV-I 153 W/m 11,4 C 15,6 C 0,0 km/h (0 Bft) 0,00 %
18.09.2015 13:36 15,5 C 76 % 1018,2 hPa 0,0 l/m 0,4 km/h (0 Bft) NO 47 5 min 0,000 mm 2,0 UV-I 684 W/m 11,3 C 15,5 C 4,0 km/h (1 Bft) 0,00 %
18.09.2015 13:41 15,7 C 75 % 1018,4 hPa 0,0 l/m 0,0 km/h (0 Bft) O-NO 66 0 min 0,000 mm 1,0 UV-I 365 W/m 11,3 C 15,7 C 0,0 km/h (0 Bft) 0,00 %
18.09.2015 13:46 16,1 C 73 % 1018,3 hPa 0,0 l/m 2,2 km/h (1 Bft) NO 52 0 min 0,000 mm 1,0 UV-I 323 W/m 11,3 C 16,1 C 4,0 km/h (1 Bft) 0,00 %
18.09.2015 13:51 16,3 C 73 % 1018,4 hPa 0,0 l/m 0,0 km/h (0 Bft) O-NO 67 0 min 0,000 mm 1,0 UV-I 284 W/m 11,4 C 16,3 C 0,0 km/h (0 Bft) 0,00 %
18.09.2015 13:56 16,3 C 72 % 1018,4 hPa 0,0 l/m 1,4 km/h (1 Bft) NO 47 0 min 0,000 mm 1,0 UV-I 292 W/m 11,2 C 16,3 C 4,0 km/h (1 Bft) 0,00 %
18.09.2015 14:01 16,2 C 73 % 1018,3 hPa 0,0 l/m 0,0 km/h (0 Bft) N-NO 31 0 min 0,000 mm 1,0 UV-I 320 W/m 11,4 C 16,2 C 0,0 km/h (0 Bft) 0,00 %
18.09.2015 14:06 16,3 C 72 % 1018,5 hPa 0,0 l/m 0,7 km/h (0 Bft) O-NO 67 5 min 0,000 mm 1,0 UV-I 369 W/m 11,2 C 16,3 C 4,0 km/h (1 Bft) 0,00 %
18.09.2015 14:11 16,5 C 71 % 1018,4 hPa 0,0 l/m 0,0 km/h (0 Bft) O 87 5 min 0,000 mm 1,0 UV-I 446 W/m 11,2 C 16,5 C 0,0 km/h (0 Bft) 0,00 %
18.09.2015 14:16 16,7 C 71 % 1018,3 hPa 0,0 l/m 0,0 km/h (0 Bft) O-NO 77 5 min 0,000 mm 2,0 UV-I 467 W/m 11,4 C 16,7 C 0,0 km/h (0 Bft) 0,00 %
18.09.2015 14:21 17,1 C 68 % 1018,3 hPa 0,0 l/m 0,7 km/h (0 Bft) O 94 5 min 0,000 mm 2,0 UV-I 439 W/m 11,1 C 17,1 C 4,0 km/h (1 Bft) 0,00 %
18.09.2015 14:26 17,2 C 66 % 1018,2 hPa 0,0 l/m 0,0 km/h (0 Bft) O 85 5 min 0,000 mm 2,0 UV-I 436 W/m 10,8 C 17,2 C 0,0 km/h (0 Bft) 0,00 %
18.09.2015 14:31 17,2 C 67 % 1018,4 hPa 0,0 l/m 0,0 km/h (0 Bft) NO 49 0 min 0,000 mm 1,0 UV-I 308 W/m 11,0 C 17,2 C 0,0 km/h (0 Bft) 0,00 %
18.09.2015 14:36 17,5 C 66 % 1018,5 hPa 0,0 l/m 0,4 km/h (0 Bft) N-NO 21 0 min 0,000 mm 1,0 UV-I 246 W/m 11,1 C 17,5 C 4,0 km/h (1 Bft) 0,00 %
18.09.2015 14:41 17,4 C 68 % 1018,4 hPa 0,0 l/m 0,4 km/h (0 Bft) O 85 0 min 0,000 mm 1,0 UV-I 241 W/m 11,4 C 17,4 C 4,0 km/h (1 Bft) 0,00 %
18.09.2015 14:46 17,0 C 67 % 1018,5 hPa 0,0 l/m 0,0 km/h (0 Bft) NO 55 0 min 0,000 mm 1,0 UV-I 247 W/m 10,8 C 17,0 C 0,0 km/h (0 Bft) 0,00 %
18.09.2015 14:51 16,8 C 68 % 1018,5 hPa 0,0 l/m 0,0 km/h (0 Bft) O-NO 63 0 min 0,000 mm 1,0 UV-I 289 W/m 10,9 C 16,8 C 0,0 km/h (0 Bft) 0,00 %
18.09.2015 14:56 16,8 C 68 % 1018,6 hPa 0,0 l/m 0,0 km/h (0 Bft) O-SO 111 0 min 0,000 mm 1,0 UV-I 298 W/m 10,9 C 16,8 C 0,0 km/h (0 Bft) 0,00 %
18.09.2015 15:01 17,0 C 67 % 1018,4 hPa 0,0 l/m 0,0 km/h (0 Bft) N 7 5 min 0,000 mm 1,0 UV-I 334 W/m 10,8 C 17,0 C 0,0 km/h (0 Bft) 0,00 %
18.09.2015 15:06 17,0 C 66 % 1018,5 hPa 0,0 l/m 0,0 km/h (0 Bft) O-NO 58 0 min 0,000 mm 1,0 UV-I 308 W/m 10,6 C 17,0 C 0,0 km/h (0 Bft) 0,00 %
18.09.2015 15:11 17,0 C 67 % 1018,7 hPa 0,0 l/m 0,0 km/h (0 Bft) O-NO 72 0 min 0,000 mm 1,0 UV-I 258 W/m 10,8 C 17,0 C 0,0 km/h (0 Bft) 0,00 %
18.09.2015 15:16 17,0 C 67 % 1018,7 hPa 0,0 l/m 0,0 km/h (0 Bft) N-NO 30 0 min 0,000 mm 1,0 UV-I 248 W/m 10,8 C 17,0 C 0,0 km/h (0 Bft) 0,00 %
18.09.2015 15:21 17,2 C 66 % 1018,8 hPa 0,0 l/m 0,0 km/h (0 Bft) O-NO 73 0 min 0,000 mm 1,0 UV-I 159 W/m 10,8 C 17,2 C 0,0 km/h (0 Bft) 0,00 %
18.09.2015 15:26 17,3 C 67 % 1018,8 hPa 0,0 l/m 0,0 km/h (0 Bft) N 353 0 min 0,000 mm 1,0 UV-I 141 W/m 11,1 C 17,3 C 0,0 km/h (0 Bft) 0,00 %
18.09.2015 15:31 17,1 C 68 % 1018,7 hPa 0,0 l/m 1,8 km/h (1 Bft) NO 51 0 min 0,000 mm 1,0 UV-I 123 W/m 11,1 C 17,1 C 4,0 km/h (1 Bft) 0,00 %
18.09.2015 15:36 16,7 C 70 % 1018,8 hPa 0,0 l/m 0,0 km/h (0 Bft) O-NO 71 0 min 0,000 mm 0,0 UV-I 108 W/m 11,2 C 16,7 C 0,0 km/h (0 Bft) 0,00 %
18.09.2015 15:41 16,4 C 71 % 1018,8 hPa 0,0 l/m 0,0 km/h (0 Bft) O-NO 57 0 min 0,000 mm 0,0 UV-I 72 W/m 11,1 C 16,4 C 0,0 km/h (0 Bft) 0,00 %
18.09.2015 15:46 16,1 C 71 % 1018,9 hPa 0,0 l/m 0,0 km/h (0 Bft) NO 48 0 min 0,000 mm 0,0 UV-I 84 W/m 10,8 C 16,1 C 0,0 km/h (0 Bft) 0,00 %
18.09.2015 15:51 16,0 C 72 % 1018,7 hPa 0,0 l/m 0,7 km/h (0 Bft) NO 48 0 min 0,000 mm 0,0 UV-I 93 W/m 11,0 C 16,0 C 4,0 km/h (1 Bft) 0,00 %
18.09.2015 15:56 15,9 C 73 % 1018,8 hPa 0,0 l/m 0,0 km/h (0 Bft) NO 53 0 min 0,000 mm 1,0 UV-I 130 W/m 11,1 C 15,9 C 0,0 km/h (0 Bft) 0,00 %
18.09.2015 16:01 15,9 C 73 % 1019,1 hPa 0,0 l/m 0,0 km/h (0 Bft) NO 39 0 min 0,000 mm 1,0 UV-I 146 W/m 11,1 C 15,9 C 0,0 km/h (0 Bft) 0,00 %
18.09.2015 16:06 15,9 C 71 % 1019,0 hPa 0,0 l/m 0,0 km/h (0 Bft) O-NO 72 0 min 0,000 mm 1,0 UV-I 155 W/m 10,6 C 15,9 C 0,0 km/h (0 Bft) 0,00 %
18.09.2015 16:11 16,0 C 70 % 1019,1 hPa 0,0 l/m 0,0 km/h (0 Bft) NO 48 0 min 0,000 mm 1,0 UV-I 140 W/m 10,5 C 16,0 C 0,0 km/h (0 Bft) 0,00 %
18.09.2015 16:16 16,1 C 70 % 1019,0 hPa 0,0 l/m 0,0 km/h (0 Bft) O-NO 65 0 min 0,000 mm 1,0 UV-I 142 W/m 10,6 C 16,1 C 0,0 km/h (0 Bft) 0,00 %
18.09.2015 16:21 16,2 C 70 % 1018,8 hPa 0,0 l/m 0,0 km/h (0 Bft) O-NO 77 0 min 0,000 mm 1,0 UV-I 151 W/m 10,7 C 16,2 C 0,0 km/h (0 Bft) 0,00 %
18.09.2015 16:26 16,2 C 70 % 1018,9 hPa 0,0 l/m 0,0 km/h (0 Bft) NO 54 0 min 0,000 mm 1,0 UV-I 143 W/m 10,7 C 16,2 C 0,0 km/h (0 Bft) 0,00 %
18.09.2015 16:31 16,3 C 69 % 1019,0 hPa 0,0 l/m 0,0 km/h (0 Bft) NO 53 0 min 0,000 mm 1,0 UV-I 162 W/m 10,6 C 16,3 C 0,0 km/h (0 Bft) 0,00 %
18.09.2015 16:36 16,4 C 69 % 1018,9 hPa 0,0 l/m 0,0 km/h (0 Bft) NO 52 0 min 0,000 mm 1,0 UV-I 192 W/m 10,7 C 16,4 C 0,0 km/h (0 Bft) 0,00 %
18.09.2015 16:41 16,5 C 69 % 1019,0 hPa 0,0 l/m 0,0 km/h (0 Bft) O 87 0 min 0,000 mm 1,0 UV-I 171 W/m 10,8 C 16,5 C 0,0 km/h (0 Bft) 0,00 %
18.09.2015 16:46 16,6 C 68 % 1019,0 hPa 0,0 l/m 0,0 km/h (0 Bft) O-NO 69 0 min 0,000 mm 1,0 UV-I 160 W/m 10,7 C 16,6 C 0,0 km/h (0 Bft) 0,00 %
18.09.2015 16:51 16,7 C 69 % 1019,1 hPa 0,0 l/m 0,0 km/h (0 Bft) O-NO 57 0 min 0,000 mm 1,0 UV-I 139 W/m 11,0 C 16,7 C 0,0 km/h (0 Bft) 0,00 %
18.09.2015 16:56 16,8 C 68 % 1018,9 hPa 0,0 l/m 0,0 km/h (0 Bft) O-NO 59 0 min 0,000 mm 1,0 UV-I 147 W/m 10,9 C 16,8 C 0,0 km/h (0 Bft) 0,00 %
18.09.2015 17:01 16,8 C 67 % 1018,9 hPa 0,0 l/m 0,0 km/h (0 Bft) O-NO 61 0 min 0,000 mm 1,0 UV-I 139 W/m 10,6 C 16,8 C 0,0 km/h (0 Bft) 0,00 %
18.09.2015 17:06 17,0 C 68 % 1018,9 hPa 0,0 l/m 0,0 km/h (0 Bft) O-NO 61 0 min 0,000 mm 1,0 UV-I 129 W/m 11,0 C 17,0 C 0,0 km/h (0 Bft) 0,00 %
18.09.2015 17:11 17,0 C 67 % 1019,1 hPa 0,0 l/m 0,0 km/h (0 Bft) NO 43 0 min 0,000 mm 1,0 UV-I 140 W/m 10,8 C 17,0 C 0,0 km/h (0 Bft) 0,00 %
18.09.2015 17:16 17,0 C 67 % 1019,1 hPa 0,0 l/m 0,0 km/h (0 Bft) SO 136 0 min 0,000 mm 0,0 UV-I 119 W/m 10,8 C 17,0 C 0,0 km/h (0 Bft) 0,00 %
18.09.2015 17:21 17,1 C 67 % 1019,1 hPa 0,0 l/m 0,0 km/h (0 Bft) O-NO 72 0 min 0,000 mm 0,0 UV-I 112 W/m 10,9 C 17,1 C 0,0 km/h (0 Bft) 0,00 %
18.09.2015 17:26 17,2 C 67 % 1019,2 hPa 0,0 l/m 0,0 km/h (0 Bft) O-NO 65 0 min 0,000 mm 0,0 UV-I 94 W/m 11,0 C 17,2 C 0,0 km/h (0 Bft) 0,00 %
18.09.2015 17:31 17,2 C 67 % 1019,0 hPa 0,0 l/m 0,0 km/h (0 Bft) O-NO 68 0 min 0,000 mm 0,0 UV-I 91 W/m 11,0 C 17,2 C 0,0 km/h (0 Bft) 0,00 %
18.09.2015 17:36 17,2 C 67 % 1019,2 hPa 0,0 l/m 0,0 km/h (0 Bft) O 79 0 min 0,000 mm 0,0 UV-I 94 W/m 11,0 C 17,2 C 0,0 km/h (0 Bft) 0,00 %
18.09.2015 17:41 17,1 C 67 % 1019,3 hPa 0,0 l/m 0,0 km/h (0 Bft) O-NO 66 0 min 0,000 mm 0,0 UV-I 84 W/m 10,9 C 17,1 C 0,0 km/h (0 Bft) 0,00 %
18.09.2015 17:46 17,1 C 68 % 1019,3 hPa 0,0 l/m 0,0 km/h (0 Bft) O-NO 67 0 min 0,000 mm 0,0 UV-I 79 W/m 11,1 C 17,1 C 0,0 km/h (0 Bft) 0,00 %
18.09.2015 17:51 17,1 C 68 % 1019,3 hPa 0,0 l/m 0,0 km/h (0 Bft) O 84 0 min 0,000 mm 0,0 UV-I 88 W/m 11,1 C 17,1 C 0,0 km/h (0 Bft) 0,00 %
18.09.2015 17:56 17,0 C 68 % 1019,3 hPa 0,0 l/m 0,0 km/h (0 Bft) O-NO 58 0 min 0,000 mm 0,0 UV-I 90 W/m 11,0 C 17,0 C 0,0 km/h (0 Bft) 0,00 %
18.09.2015 18:01 17,0 C 69 % 1019,3 hPa 0,0 l/m 0,0 km/h (0 Bft) O-NO 61 0 min 0,000 mm 0,0 UV-I 69 W/m 11,3 C 17,0 C 0,0 km/h (0 Bft) 0,00 %
18.09.2015 18:06 16,9 C 70 % 1019,3 hPa 0,0 l/m 0,0 km/h (0 Bft) NO 48 0 min 0,000 mm 0,0 UV-I 80 W/m 11,4 C 16,9 C 0,0 km/h (0 Bft) 0,00 %
18.09.2015 18:11 16,7 C 70 % 1019,4 hPa 0,0 l/m 0,0 km/h (0 Bft) NO 56 0 min 0,000 mm 0,0 UV-I 61 W/m 11,2 C 16,7 C 0,0 km/h (0 Bft) 0,00 %
18.09.2015 18:16 16,5 C 70 % 1019,3 hPa 0,0 l/m 0,0 km/h (0 Bft) NO 50 0 min 0,000 mm 0,0 UV-I 48 W/m 11,0 C 16,5 C 0,0 km/h (0 Bft) 0,00 %
18.09.2015 18:21 16,3 C 72 % 1019,4 hPa 0,0 l/m 0,0 km/h (0 Bft) NO 53 0 min 0,000 mm 0,0 UV-I 55 W/m 11,2 C 16,3 C 0,0 km/h (0 Bft) 0,00 %
18.09.2015 18:26 16,1 C 71 % 1019,3 hPa 0,0 l/m 0,0 km/h (0 Bft) NO 50 0 min 0,000 mm 0,0 UV-I 50 W/m 10,8 C 16,1 C 0,0 km/h (0 Bft) 0,00 %
18.09.2015 18:31 16,0 C 73 % 1019,4 hPa 0,0 l/m 0,0 km/h (0 Bft) O 80 0 min 0,000 mm 0,0 UV-I 26 W/m 11,2 C 16,0 C 0,0 km/h (0 Bft) 0,00 %
18.09.2015 18:36 15,9 C 73 % 1019,4 hPa 0,0 l/m 0,0 km/h (0 Bft) O-NO 58 0 min 0,000 mm 0,0 UV-I 20 W/m 11,1 C 15,9 C 0,0 km/h (0 Bft) 0,00 %
18.09.2015 18:41 15,9 C 74 % 1019,4 hPa 0,0 l/m 0,0 km/h (0 Bft) O-NO 62 0 min 0,000 mm 0,0 UV-I 6 W/m 11,3 C 15,9 C 0,0 km/h (0 Bft) 0,00 %
18.09.2015 18:46 15,8 C 75 % 1019,3 hPa 0,0 l/m 0,0 km/h (0 Bft) NO 44 0 min 0,000 mm 0,0 UV-I 5 W/m 11,4 C 15,8 C 0,0 km/h (0 Bft) 0,00 %
18.09.2015 18:51 15,6 C 75 % 1019,5 hPa 0,0 l/m 0,0 km/h (0 Bft) O-NO 64 0 min 0,000 mm 0,0 UV-I 2 W/m 11,2 C 15,6 C 0,0 km/h (0 Bft) 0,00 %
18.09.2015 18:56 15,5 C 75 % 1019,5 hPa 0,0 l/m 0,0 km/h (0 Bft) O-NO 64 0 min 0,000 mm 0,0 UV-I 0 W/m 11,1 C 15,5 C 0,0 km/h (0 Bft) 0,00 %
18.09.2015 19:01 15,4 C 75 % 1019,6 hPa 0,0 l/m 0,0 km/h (0 Bft) O 91 0 min 0,000 mm 0,0 UV-I 0 W/m 11,0 C 15,4 C 0,0 km/h (0 Bft) 0,00 %
18.09.2015 19:06 15,4 C 75 % 1019,3 hPa 0,0 l/m 0,0 km/h (0 Bft) O-NO 61 0 min 0,000 mm 0,0 UV-I 0 W/m 11,0 C 15,4 C 0,0 km/h (0 Bft) 0,00 %
18.09.2015 19:11 15,4 C 75 % 1019,6 hPa 0,0 l/m 0,0 km/h (0 Bft) NO 55 0 min 0,000 mm 0,0 UV-I 0 W/m 11,0 C 15,4 C 0,0 km/h (0 Bft) 0,00 %
18.09.2015 19:16 15,3 C 76 % 1019,3 hPa 0,0 l/m 0,0 km/h (0 Bft) O-NO 70 0 min 0,000 mm 0,0 UV-I 0 W/m 11,1 C 15,3 C 0,0 km/h (0 Bft) 0,00 %
18.09.2015 19:21 15,2 C 77 % 1019,6 hPa 0,0 l/m 0,0 km/h (0 Bft) O-NO 70 0 min 0,000 mm 0,0 UV-I 0 W/m 11,2 C 15,2 C 0,0 km/h (0 Bft) 0,00 %
18.09.2015 19:26 15,1 C 77 % 1019,6 hPa 0,0 l/m 0,0 km/h (0 Bft) O-NO 73 0 min 0,000 mm 0,0 UV-I 0 W/m 11,1 C 15,1 C 0,0 km/h (0 Bft) 0,00 %
18.09.2015 19:31 15,1 C 78 % 1019,6 hPa 0,0 l/m 0,0 km/h (0 Bft) O-NO 70 0 min 0,000 mm 0,0 UV-I 0 W/m 11,3 C 15,1 C 0,0 km/h (0 Bft) 0,00 %
18.09.2015 19:36 15,0 C 79 % 1019,7 hPa 0,0 l/m 0,0 km/h (0 Bft) O-NO 70 0 min 0,000 mm 0,0 UV-I 0 W/m 11,4 C 15,0 C 0,0 km/h (0 Bft) 0,00 %
18.09.2015 19:41 14,9 C 80 % 1019,9 hPa 0,0 l/m 0,0 km/h (0 Bft) O-NO 70 0 min 0,000 mm 0,0 UV-I 0 W/m 11,5 C 14,9 C 0,0 km/h (0 Bft) 0,00 %
18.09.2015 19:46 14,8 C 80 % 1019,9 hPa 0,0 l/m 0,0 km/h (0 Bft) O-NO 70 0 min 0,000 mm 0,0 UV-I 0 W/m 11,4 C 14,8 C 0,0 km/h (0 Bft) 0,00 %
18.09.2015 19:51 14,7 C 80 % 1019,9 hPa 0,0 l/m 0,0 km/h (0 Bft) O-NO 70 0 min 0,000 mm 0,0 UV-I 0 W/m 11,3 C 14,7 C 0,0 km/h (0 Bft) 0,00 %
18.09.2015 19:56 14,6 C 81 % 1020,0 hPa 0,0 l/m 0,0 km/h (0 Bft) O-NO 70 0 min 0,000 mm 0,0 UV-I 0 W/m 11,4 C 14,6 C 0,0 km/h (0 Bft) 0,00 %
18.09.2015 20:01 14,5 C 81 % 1019,9 hPa 0,0 l/m 0,0 km/h (0 Bft) O-NO 70 0 min 0,000 mm 0,0 UV-I 0 W/m 11,3 C 14,5 C 0,0 km/h (0 Bft) 0,00 %
18.09.2015 20:06 14,4 C 82 % 1019,9 hPa 0,0 l/m 0,0 km/h (0 Bft) O-NO 70 0 min 0,000 mm 0,0 UV-I 0 W/m 11,4 C 14,4 C 0,0 km/h (0 Bft) 0,00 %
18.09.2015 20:11 14,2 C 82 % 1020,0 hPa 0,0 l/m 0,0 km/h (0 Bft) O-NO 70 0 min 0,000 mm 0,0 UV-I 0 W/m 11,2 C 14,2 C 0,0 km/h (0 Bft) 0,00 %
18.09.2015 20:16 14,1 C 84 % 1020,2 hPa 0,0 l/m 0,0 km/h (0 Bft) O-NO 70 0 min 0,000 mm 0,0 UV-I 0 W/m 11,4 C 14,1 C 0,0 km/h (0 Bft) 0,00 %
18.09.2015 20:21 14,1 C 84 % 1020,0 hPa 0,0 l/m 0,0 km/h (0 Bft) O-NO 70 0 min 0,000 mm 0,0 UV-I 0 W/m 11,4 C 14,1 C 0,0 km/h (0 Bft) 0,00 %
18.09.2015 20:27 13,9 C 85 % 1020,1 hPa 0,0 l/m 0,0 km/h (0 Bft) O 90 0 min 0,000 mm 0,0 UV-I 0 W/m 11,4 C 13,9 C 0,0 km/h (0 Bft) 0,00 %
18.09.2015 20:32 13,9 C 86 % 1020,3 hPa 0,0 l/m 0,0 km/h (0 Bft) O 90 0 min 0,000 mm 0,0 UV-I 0 W/m 11,6 C 13,9 C 0,0 km/h (0 Bft) 0,00 %
18.09.2015 20:37 13,8 C 86 % 1020,3 hPa 0,0 l/m 0,0 km/h (0 Bft) O 89 0 min 0,000 mm 0,0 UV-I 0 W/m 11,5 C 13,8 C 0,0 km/h (0 Bft) 0,00 %
18.09.2015 20:42 13,7 C 86 % 1020,3 hPa 0,0 l/m 0,0 km/h (0 Bft) O-NO 77 0 min 0,000 mm 0,0 UV-I 0 W/m 11,4 C 13,7 C 0,0 km/h (0 Bft) 0,00 %
18.09.2015 20:47 13,7 C 86 % 1020,5 hPa 0,0 l/m 0,0 km/h (0 Bft) O 91 0 min 0,000 mm 0,0 UV-I 0 W/m 11,4 C 13,7 C 0,0 km/h (0 Bft) 0,00 %
18.09.2015 20:52 13,6 C 85 % 1020,5 hPa 0,0 l/m 0,0 km/h (0 Bft) O-NO 72 0 min 0,000 mm 0,0 UV-I 0 W/m 11,1 C 13,6 C 0,0 km/h (0 Bft) 0,00 %
18.09.2015 20:57 13,6 C 85 % 1020,6 hPa 0,0 l/m 0,0 km/h (0 Bft) NO 44 0 min 0,000 mm 0,0 UV-I 0 W/m 11,1 C 13,6 C 0,0 km/h (0 Bft) 0,00 %
18.09.2015 21:02 13,6 C 85 % 1020,5 hPa 0,0 l/m 0,0 km/h (0 Bft) O-NO 67 0 min 0,000 mm 0,0 UV-I 0 W/m 11,1 C 13,6 C 0,0 km/h (0 Bft) 0,00 %
18.09.2015 21:07 13,6 C 86 % 1020,5 hPa 0,0 l/m 0,0 km/h (0 Bft) O-NO 67 0 min 0,000 mm 0,0 UV-I 0 W/m 11,3 C 13,6 C 0,0 km/h (0 Bft) 0,00 %
18.09.2015 21:12 13,6 C 86 % 1020,4 hPa 0,0 l/m 0,0 km/h (0 Bft) O-NO 67 0 min 0,000 mm 0,0 UV-I 0 W/m 11,3 C 13,6 C 0,0 km/h (0 Bft) 0,00 %
18.09.2015 21:17 13,5 C 86 % 1020,4 hPa 0,0 l/m 0,0 km/h (0 Bft) O-NO 67 0 min 0,000 mm 0,0 UV-I 0 W/m 11,2 C 13,5 C 0,0 km/h (0 Bft) 0,00 %
18.09.2015 21:22 13,5 C 86 % 1020,4 hPa 0,0 l/m 0,0 km/h (0 Bft) O-NO 67 0 min 0,000 mm 0,0 UV-I 0 W/m 11,2 C 13,5 C 0,0 km/h (0 Bft) 0,00 %
18.09.2015 21:27 13,4 C 87 % 1020,5 hPa 0,0 l/m 0,0 km/h (0 Bft) O 83 0 min 0,000 mm 0,0 UV-I 0 W/m 11,3 C 13,4 C 0,0 km/h (0 Bft) 0,00 %
18.09.2015 21:32 13,3 C 87 % 1020,5 hPa 0,0 l/m 0,0 km/h (0 Bft) O 83 0 min 0,000 mm 0,0 UV-I 0 W/m 11,2 C 13,3 C 0,0 km/h (0 Bft) 0,00 %
18.09.2015 21:37 13,2 C 88 % 1020,4 hPa 0,0 l/m 0,0 km/h (0 Bft) O 83 0 min 0,000 mm 0,0 UV-I 0 W/m 11,3 C 13,2 C 0,0 km/h (0 Bft) 0,00 %
18.09.2015 21:42 13,1 C 88 % 1020,5 hPa 0,0 l/m 0,0 km/h (0 Bft) O 83 0 min 0,000 mm 0,0 UV-I 0 W/m 11,2 C 13,1 C 0,0 km/h (0 Bft) 0,00 %
18.09.2015 21:47 12,9 C 88 % 1020,5 hPa 0,0 l/m 0,0 km/h (0 Bft) O 83 0 min 0,000 mm 0,0 UV-I 0 W/m 11,0 C 12,9 C 0,0 km/h (0 Bft) 0,00 %
18.09.2015 21:52 12,8 C 89 % 1020,6 hPa 0,0 l/m 0,0 km/h (0 Bft) O 83 0 min 0,000 mm 0,0 UV-I 0 W/m 11,0 C 12,8 C 0,0 km/h (0 Bft) 0,00 %
18.09.2015 21:57 12,5 C 89 % 1020,6 hPa 0,0 l/m 0,0 km/h (0 Bft) O 83 0 min 0,000 mm 0,0 UV-I 0 W/m 10,7 C 12,5 C 0,0 km/h (0 Bft) 0,00 %
18.09.2015 22:02 12,3 C 90 % 1020,7 hPa 0,0 l/m 0,0 km/h (0 Bft) O 83 0 min 0,000 mm 0,0 UV-I 0 W/m 10,7 C 12,3 C 0,0 km/h (0 Bft) 0,00 %
18.09.2015 22:07 12,2 C 91 % 1020,8 hPa 0,0 l/m 0,0 km/h (0 Bft) O 83 0 min 0,000 mm 0,0 UV-I 0 W/m 10,8 C 12,2 C 0,0 km/h (0 Bft) 0,00 %
18.09.2015 22:12 12,0 C 91 % 1020,9 hPa 0,0 l/m 0,0 km/h (0 Bft) O 95 0 min 0,000 mm 0,0 UV-I 0 W/m 10,6 C 12,0 C 0,0 km/h (0 Bft) 0,00 %
18.09.2015 22:17 11,9 C 92 % 1021,0 hPa 0,0 l/m 0,0 km/h (0 Bft) O 98 0 min 0,000 mm 0,0 UV-I 0 W/m 10,6 C 11,9 C 0,0 km/h (0 Bft) 0,00 %
18.09.2015 22:22 11,9 C 92 % 1020,7 hPa 0,0 l/m 0,0 km/h (0 Bft) SO 146 0 min 0,000 mm 0,0 UV-I 0 W/m 10,6 C 11,9 C 0,0 km/h (0 Bft) 0,00 %
18.09.2015 22:27 11,9 C 92 % 1020,7 hPa 0,0 l/m 0,0 km/h (0 Bft) S 174 0 min 0,000 mm 0,0 UV-I 0 W/m 10,6 C 11,9 C 0,0 km/h (0 Bft) 0,00 %
18.09.2015 22:32 12,0 C 92 % 1020,8 hPa 0,0 l/m 0,0 km/h (0 Bft) O 95 0 min 0,000 mm 0,0 UV-I 0 W/m 10,7 C 12,0 C 0,0 km/h (0 Bft) 0,00 %
18.09.2015 22:37 12,1 C 92 % 1020,9 hPa 0,0 l/m 0,0 km/h (0 Bft) S 184 0 min 0,000 mm 0,0 UV-I 0 W/m 10,8 C 12,1 C 0,0 km/h (0 Bft) 0,00 %
18.09.2015 22:42 12,1 C 91 % 1020,9 hPa 0,0 l/m 0,0 km/h (0 Bft) S-SW 207 0 min 0,000 mm 0,0 UV-I 0 W/m 10,7 C 12,1 C 0,0 km/h (0 Bft) 0,00 %
18.09.2015 22:47 12,2 C 90 % 1021,2 hPa 0,0 l/m 0,0 km/h (0 Bft) S-SW 207 0 min 0,000 mm 0,0 UV-I 0 W/m 10,6 C 12,2 C 0,0 km/h (0 Bft) 0,00 %
18.09.2015 22:52 12,2 C 90 % 1021,4 hPa 0,0 l/m 0,0 km/h (0 Bft) S-SW 207 0 min 0,000 mm 0,0 UV-I 0 W/m 10,6 C 12,2 C 0,0 km/h (0 Bft) 0,00 %
18.09.2015 22:57 12,2 C 89 % 1021,3 hPa 0,0 l/m 0,0 km/h (0 Bft) S-SW 207 0 min 0,000 mm 0,0 UV-I 0 W/m 10,4 C 12,2 C 0,0 km/h (0 Bft) 0,00 %
18.09.2015 23:02 12,2 C 89 % 1021,3 hPa 0,0 l/m 0,0 km/h (0 Bft) S-SW 207 0 min 0,000 mm 0,0 UV-I 0 W/m 10,4 C 12,2 C 0,0 km/h (0 Bft) 0,00 %
18.09.2015 23:07 12,2 C 89 % 1021,6 hPa 0,0 l/m 0,0 km/h (0 Bft) O 82 0 min 0,000 mm 0,0 UV-I 0 W/m 10,4 C 12,2 C 0,0 km/h (0 Bft) 0,00 %
18.09.2015 23:12 12,2 C 89 % 1021,7 hPa 0,0 l/m 0,0 km/h (0 Bft) O 89 0 min 0,000 mm 0,0 UV-I 0 W/m 10,4 C 12,2 C 0,0 km/h (0 Bft) 0,00 %
18.09.2015 23:17 12,2 C 90 % 1021,6 hPa 0,0 l/m 0,0 km/h (0 Bft) O-SO 111 0 min 0,000 mm 0,0 UV-I 0 W/m 10,6 C 12,2 C 0,0 km/h (0 Bft) 0,00 %
18.09.2015 23:22 12,1 C 90 % 1021,6 hPa 0,0 l/m 0,0 km/h (0 Bft) O-NO 69 0 min 0,000 mm 0,0 UV-I 0 W/m 10,5 C 12,1 C 0,0 km/h (0 Bft) 0,00 %
18.09.2015 23:27 12,1 C 90 % 1021,7 hPa 0,0 l/m 0,0 km/h (0 Bft) O-NO 71 0 min 0,000 mm 0,0 UV-I 0 W/m 10,5 C 12,1 C 0,0 km/h (0 Bft) 0,00 %
18.09.2015 23:32 12,0 C 90 % 1021,7 hPa 0,0 l/m 0,0 km/h (0 Bft) O-NO 76 0 min 0,000 mm 0,0 UV-I 0 W/m 10,4 C 12,0 C 0,0 km/h (0 Bft) 0,00 %
18.09.2015 23:37 11,9 C 90 % 1021,7 hPa 0,0 l/m 0,7 km/h (0 Bft) W-SW 256 0 min 0,000 mm 0,0 UV-I 0 W/m 10,3 C 11,9 C 4,0 km/h (1 Bft) 0,00 %
18.09.2015 23:42 11,9 C 90 % 1021,8 hPa 0,0 l/m 0,0 km/h (0 Bft) O 83 0 min 0,000 mm 0,0 UV-I 0 W/m 10,3 C 11,9 C 0,0 km/h (0 Bft) 0,00 %
18.09.2015 23:47 11,9 C 90 % 1021,8 hPa 0,0 l/m 0,0 km/h (0 Bft) O 93 0 min 0,000 mm 0,0 UV-I 0 W/m 10,3 C 11,9 C 0,0 km/h (0 Bft) 0,00 %
18.09.2015 23:52 12,0 C 89 % 1021,8 hPa 0,0 l/m 0,0 km/h (0 Bft) O 81 0 min 0,000 mm 0,0 UV-I 0 W/m 10,2 C 12,0 C 0,0 km/h (0 Bft) 0,00 %
18.09.2015 23:57 12,0 C 89 % 1021,8 hPa 0,0 l/m 0,0 km/h (0 Bft) O 84 0 min 0,000 mm 0,0 UV-I 0 W/m 10,2 C 12,0 C 0,0 km/h (0 Bft) 0,00 %
_ Min-Zeit 22:17 09:16 00:10 - 00:00 - - - - - - 09:16 22:17 00:00 00:00
Minimum _ 11,9 C 63 % 1015,2 hPa - 0,0 km/h (0 Bft) - - - - - - 8,7 C 11,9 C 0,0 km/h (0 Bft) 0,00 %
_ Max-Zeit 14:36 22:17 23:42 11:31 13:11 - - 09:01 00:00 12:56 13:36 20:32 14:36 01:30 00:00
Maximum _ 17,5 C 92 % 1021,8 hPa 0,3 l/m 2,9 km/h
O-NO (1 Bft)
- - 5 min 0,000 mm 2,0 UV-I 684 W/m 11,6 C 17,5 C 4,0 km/h
O-NO (1 Bft)
0,00 %
Durchschnitt _ 14,6 C 77 % 1018,0 hPa #0,3 l/m 0,1 km/h (0 Bft) NO - #1:00 h #0,000 mm 1,1 UV-I 158 W/m 10,5 C 14,6 C 0,4 km/h (0 Bft) 0,00 %